Regional Weather Roundup
Issued by NWS

Home | Current Version | Previous Version | Graphics & Text | Print | Product List | Glossary On
Versions: 1 2 3 4 5 6 7 8 9 10 11 12 13 14 15 16 17 18 19 20 21 22 23 24 25 26 27 28 29 30 31 32 33 34 35 36 37 38 39 40 41 42 43 44 45 46 47 48 49 50
943
ASUS43 KTOP 220859
RWRKS

WEATHER ROUNDUP FOR KANSAS
NATIONAL WEATHER SERVICE GOODLAND KS
400 AM CDT FRI SEP 22 2017

NOTE:  "FAIR" INDICATES FEW OR NO CLOUDS BELOW 12,000 FEET WITH NO
SIGNIFICANT WEATHER AND/OR OBSTRUCTIONS TO VISIBILITY.

KSZ001>006-013>018-027>032-041>047-221000-
NORTHWEST KANSAS

CITY           SKY/WX    TMP DP  RH WIND       PRES   REMARKS
GOODLAND       CLEAR     65  48  54 S15       29.72S
HAYS           CLEAR     78  68  71 S20G26    29.78S
HILL CITY      CLEAR     79  68  69 S20G31    29.74F
RUSSELL        CLEAR     78  67  68 S23G30    29.79R
$$

KSZ061>065-074>080-084>089-221000-
SOUTHWEST KANSAS

CITY           SKY/WX    TMP DP  RH WIND       PRES   REMARKS
DODGE CITY     CLEAR     76  65  68 S22G30    29.82F
ELKHART          N/A     68  58  70 S14         N/A
GARDEN CITY    CLEAR     75  62  64 S23G32    29.79S
GREAT BEND     CLEAR     76  68  76 S18G25    29.82S
LIBERAL        CLEAR     75  61  61 S25       29.82S
$$

KSZ066>073-081>083-090>101-221000-
SOUTHEAST KANSAS

CITY           SKY/WX    TMP DP  RH WIND       PRES   REMARKS
CHANUTE        CLEAR     73  69  87 SE8       29.94S
COFFEYVILLE    CLEAR     72  69  90 SE5       29.93R
HUTCHINSON     CLEAR     77  69  76 SE15      29.85F
MEDICINE LODGE   N/A     76  66  71 SE10      29.84F
NEWTON         CLEAR     75  68  78 S13       29.89S
WICHITA INTL   CLEAR     76  70  82 S14       29.87F
WICHITA JABRA  CLEAR     75  70  84 S13       29.88F
WINFIELD       CLEAR     75  70  84 SE9       29.90S
$$

KSZ007>012-019>026-033>040-048>060-102>105-221000-
NORTHEAST KANSAS

CITY           SKY/WX    TMP DP  RH WIND       PRES   REMARKS
CONCORDIA      CLEAR     79  69  71 S23       29.81S
EMPORIA        CLEAR     74  69  85 S16       29.90R
LAWRENCE       CLEAR     76  71  85 SE9       29.91R
MANHATTAN      CLEAR     79  69  71 S13       29.85S
OLATHE IND     CLEAR     73  69  87 S9        29.94R
OLATHE EXE     CLEAR     72  70  93 S8        29.94S
SALINA         CLEAR     82  68  62 S18G30    29.82F
TOPEKA BILLARD CLEAR     77  71  82 SE8       29.89S
TOPEKA FORBES  CLEAR     76  71  85 S12       29.90S
$$




USA.gov is the U.S. government's official web portal to all federal, state and local government web resources and services.